DW0841 Weather Reports


Display with metric or nautical units.
time (UTC)temp
F
wind
direction
speed
MPH
gust
MPH
rain 1hr
in
rain 24hr
in
rain mn
in
humidity
%
barometer
mb
20260508121717 54 180 4.0 8.0 0.00 0.06 0.03 72 1016.7
20260508120717 54 315 1.0 2.0 0.00 0.06 0.03 73 1016.8
20260508115717 53 45 4.0 7.0 0.00 0.06 0.03 73 1016.7
20260508114717 53 135 2.0 5.0 0.00 0.08 0.03 74 1016.7
20260508113717 53 90 3.0 8.0 0.00 0.09 0.03 74 1016.6
20260508112737 54 68 3.0 5.0 0.00 0.09 0.03 73 1016.1
20260508111717 54 135 3.0 6.0 0.00 0.09 0.03 72 1015.9
20260508110717 53 315 2.0 5.0 0.00 0.11 0.03 73 1015.8
20260508105737 53 135 3.0 7.0 0.00 0.12 0.03 73 1015.7
20260508104717 53 135 4.0 7.0 0.00 0.12 0.03 73 1015.8
20260508103717 52 248 3.0 4.0 0.00 0.12 0.03 73 1015.8
20260508102737 52 68 1.0 2.0 0.00 0.12 0.03 74 1015.9
20260508101717 52 158 1.0 3.0 0.00 0.12 0.03 73 1015.9
20260508100717 53 113 3.0 7.0 0.00 0.12 0.03 72 1016.0
20260508095717 53 203 4.0 10.0 0.00 0.12 0.03 72 1015.7
20260508094717 53 270 3.0 7.0 0.00 0.12 0.03 72 1015.6
20260508093716 52 225 4.0 7.0 0.00 0.12 0.03 72 1015.5
20260508092716 52 180 3.0 5.0 0.00 0.12 0.03 73 1015.1
20260508091737 52 248 2.0 4.0 0.00 0.12 0.03 73 1015.3
20260508090717 53 225 2.0 4.0 0.00 0.12 0.03 73 1015.4
20260508085737 53 248 3.0 9.0 0.00 0.12 0.03 73 1015.4
20260508084716 52 180 3.0 6.0 0.00 0.12 0.03 75 1015.6
20260508083737 53 135 2.0 3.0 0.00 0.12 0.03 75 1015.7
20260508082737 53 225 6.0 10.0 0.00 0.12 0.03 76 1015.8
20260508081757 53 248 2.0 6.0 0.00 0.12 0.03 76 1015.7
20260508080717 53 203 3.0 4.0 0.00 0.12 0.03 76 1015.7
20260508075716 53 203 3.0 11.0 0.00 0.12 0.03 77 1015.8
20260508074716 53 248 3.0 9.0 0.00 0.12 0.03 77 1015.5
20260508073737 53 203 3.0 9.0 0.00 0.12 0.03 77 1015.3
20260508072717 53 203 1.0 1.0 0.00 0.12 0.03 77 1015.3
20260508071716 52 135 1.0 2.0 0.00 0.12 0.03 78 1015.2
20260508070717 52 203 3.0 5.0 0.00 0.12 0.03 77 1015.1
20260508065717 53 225 2.0 4.0 0.00 0.12 0.03 77 1014.8
20260508064716 53 180 3.0 9.0 0.00 0.12 0.03 77 1014.8
20260508063736 53 180 3.0 6.0 0.00 0.12 0.03 78 1014.8
20260508062736 54 248 2.0 5.0 0.00 0.12 0.03 78 1014.8
20260508061717 54 180 3.0 6.0 0.00 0.12 0.03 77 1014.6
20260508060716 54 203 3.0 7.0 0.00 0.12 0.03 77 1014.6
20260508055717 55 180 2.0 6.0 0.00 0.12 0.03 76 1014.4
20260508054717 55 225 2.0 4.0 0.00 0.12 0.03 75 1014.1
20260508053716 56 203 1.0 2.0 0.00 0.12 0.03 75 1013.9
20260508052717 56 270 4.0 6.0 0.00 0.12 0.03 75 1013.8
20260508051717 55 225 1.0 2.0 0.00 0.12 0.03 77 1013.7
20260508050716 54 180 2.0 4.0 0.00 0.12 0.03 76 1013.7
20260508045716 54 180 3.0 5.0 0.00 0.12 0.03 76 1013.6
20260508044717 55 203 3.0 6.0 0.00 0.12 0.03 76 1013.5
20260508043717 55 225 2.0 5.0 0.00 0.12 0.03 76 1013.3
20260508042716 55 180 2.0 4.0 0.00 0.12 0.03 76 1013.2
20260508041716 55 203 2.0 3.0 0.00 0.12 0.03 74 1013.1
20260508040717 55 203 1.0 3.0 0.00 0.12 0.03 74 1013.0
20260508035716 55 203 3.0 4.0 0.00 0.12 0.03 73 1012.9
20260508034716 56 270 3.0 4.0 0.00 0.12 0.03 72 1012.8
20260508033717 56 225 2.0 3.0 0.00 0.12 0.03 70 1013.0
20260508032716 56 158 3.0 7.0 0.00 0.12 0.03 71 1012.9
20260508031716 56 203 3.0 6.0 0.00 0.12 0.03 71 1013.0
20260508030757 55 180 2.0 4.0 0.00 0.12 0.03 71 1012.8
20260508025717 55 225 2.0 3.0 0.00 0.12 0.03 73 1012.9
20260508024717 55 203 5.0 7.0 0.00 0.12 0.03 71 1012.7
20260508023737 55 180 3.0 7.0 0.00 0.12 0.03 72 1012.7
20260508022717 55 203 7.0 11.0 0.00 0.12 0.03 70 1012.8
20260508021716 55 180 3.0 5.0 0.00 0.12 0.03 69 1012.6
20260508020717 55 180 6.0 11.0 0.00 0.12 0.03 69 1012.5
20260508015716 55 203 3.0 7.0 0.00 0.12 0.03 69 1012.6
20260508014716 55 180 4.0 6.0 0.00 0.12 0.03 67 1012.5
20260508013716 55 135 3.0 9.0 0.00 0.12 0.03 69 1012.5
20260508012716 55 203 4.0 9.0 0.00 0.12 0.03 70 1012.3
20260508011737 54 203 3.0 7.0 0.00 0.12 0.03 72 1012.3
20260508010717 53 180 6.0 12.0 0.00 0.12 0.03 73 1012.3
20260508005716 53 203 5.0 10.0 0.00 0.12 0.03 73 1012.1
20260508004716 53 248 6.0 9.0 0.00 0.12 0.03 73 1012.0
20260508003736 53 225 4.0 8.0 0.00 0.12 0.03 74 1011.9
20260508002716 52 203 2.0 4.0 0.00 0.12 0.03 74 1011.7
20260508001716 52 180 4.0 9.0 0.00 0.12 0.03 75 1011.6
20260508000716 52 225 3.0 5.0 0.00 0.12 0.03 75 1011.4
20260507235716 51 225 5.0 7.0 0.00 0.12 0.03 77 1011.3
20260507234716 51 180 4.0 6.0 0.00 0.12 0.03 77 1011.4
20260507233737 51 158 2.0 5.0 0.00 0.12 0.03 77 1011.4
20260507232736 51 135 3.0 5.0 0.00 0.12 0.03 78 1011.1
20260507231716 51 203 4.0 7.0 0.00 0.12 0.03 78 1010.8
20260507230717 51 135 4.0 12.0 0.00 0.12 0.03 77 1010.6
20260507225716 51 158 3.0 6.0 0.00 0.12 0.03 79 1010.6
20260507224716 50 180 4.0 9.0 0.00 0.12 0.03 80 1010.5
20260507223716 49 180 2.0 5.0 0.00 0.12 0.03 83 1010.4
20260507222717 49 180 1.0 3.0 0.00 0.12 0.03 83 1010.2
20260507221716 49 180 2.0 3.0 0.00 0.12 0.03 84 1010.2
20260507220716 49 180 2.0 6.0 0.00 0.12 0.03 85 1010.0
20260507215736 49 203 3.0 6.0 0.00 0.12 0.03 85 1009.7
20260507214716 48 180 3.0 4.0 0.00 0.12 0.03 86 1009.5
20260507213716 48 158 3.0 9.0 0.00 0.12 0.03 86 1009.3
20260507212716 48 180 3.0 6.0 0.00 0.12 0.03 85 1009.2
20260507211716 49 180 2.0 4.0 0.00 0.12 0.03 85 1009.0
20260507210716 48 180 3.0 9.0 0.00 0.12 0.03 86 1008.7
20260507205717 48 113 1.0 3.0 0.01 0.12 0.03 86 1008.7
20260507204716 48 0.0 1.0 0.02 0.12 0.03 87 1008.6
20260507203716 48 180 1.0 3.0 0.02 0.12 0.03 87 1008.6
20260507202716 48 180 3.0 6.0 0.02 0.12 0.03 88 1008.4
20260507201716 48 203 2.0 5.0 0.02 0.12 0.03 88 1008.2
20260507200716 48 135 2.0 3.0 0.02 0.12 0.03 88 1008.2
20260507195736 48 0.0 2.0 0.01 0.11 0.02 87 1007.9
20260507194737 49 113 2.0 4.0 0.00 0.10 0.02 86 1007.5
20260507193716 49 113 1.0 3.0 0.00 0.10 0.02 86 1007.4
20260507192716 49 248 1.0 4.0 0.00 0.10 0.02 85 1007.4
20260507191716 49 203 2.0 3.0 0.00 0.10 0.02 85 1007.1
20260507190717 49 135 3.0 4.0 0.00 0.10 0.02 84 1007.1
20260507185716 50 180 3.0 6.0 0.00 0.10 0.02 81 1006.6
20260507184716 50 203 3.0 5.0 0.00 0.10 0.02 81 1006.4
20260507183716 50 203 4.0 10.0 0.00 0.10 0.02 81 1006.2
20260507182716 50 158 2.0 3.0 0.00 0.10 0.02 81 1006.1
20260507181716 50 158 3.0 5.0 0.00 0.11 0.02 81 1005.9
20260507180716 50 270 3.0 5.0 0.00 0.11 0.02 82 1005.6
20260507175716 50 248 2.0 2.0 0.00 0.11 0.02 82 1005.3
20260507174718 49 203 5.0 8.0 0.00 0.11 0.02 83 1005.2
20260507173718 50 180 2.0 3.0 0.01 0.11 0.02 83 1005.1
20260507172718 50 203 2.0 4.0 0.01 0.11 0.02 84 1005.1
20260507171718 49 158 1.0 3.0 0.01 0.11 0.02 85 1005.0
20260507170738 49 180 2.0 3.0 0.01 0.11 0.02 85 1004.7
20260507165718 50 270 2.0 3.0 0.01 0.11 0.02 85 1004.7
20260507164718 50 180 3.0 5.0 0.01 0.11 0.02 85 1004.7
20260507163718 50 180 2.0 7.0 0.01 0.10 0.01 85 1004.4
20260507162718 50 203 7.0 12.0 0.01 0.10 0.01 86 1004.4
20260507161818 50 180 3.0 6.0 0.01 0.10 0.01 87 1003.9
20260507160718 50 203 2.0 9.0 0.01 0.10 0.01 88 1004.2
20260507155718 50 180 3.0 6.0 0.01 0.10 0.01 88 1004.2
20260507154718 50 180 6.0 11.0 0.01 0.11 0.01 88 1004.0
20260507153718 51 180 3.0 5.0 0.00 0.10 0.00 87 1004.0
20260507152718 51 248 2.0 4.0 0.00 0.10 0.00 86 1003.9
20260507151718 51 180 2.0 5.0 0.00 0.10 0.00 86 1003.9
20260507150718 50 158 5.0 9.0 0.00 0.10 0.00 87 1003.5
20260507145718 50 0.0 1.0 0.00 0.10 0.00 88 1003.4
20260507144718 50 135 2.0 6.0 0.00 0.10 0.00 89 1003.3
20260507143718 50 113 2.0 4.0 0.00 0.10 0.00 90 1003.2
20260507142718 50 135 1.0 6.0 0.00 0.10 0.00 90 1003.2
20260507141718 50 248 2.0 5.0 0.00 0.10 0.00 91 1003.3
20260507140718 50 0.0 1.0 0.00 0.11 0.00 91 1003.3
20260507135717 50 158 2.0 4.0 0.00 0.11 0.11 91 1003.1
20260507134717 50 158 2.0 3.0 0.02 0.11 0.11 91 1003.1
20260507133718 50 0.0 0.0 0.02 0.11 0.11 91 1003.1
20260507132717 50 135 3.0 7.0 0.03 0.11 0.11 91 1002.9
20260507131717 50 0.0 3.0 0.03 0.11 0.11 91 1002.8
20260507130718 50 135 1.0 3.0 0.03 0.11 0.11 91 1003.1
20260507125717 50 0.0 1.0 0.03 0.11 0.11 91 1003.1
20260507124740 50 68 1.0 3.0 0.03 0.09 0.09 91 1003.0
20260507123717 50 45 2.0 4.0 0.04 0.09 0.09 91 1002.8
20260507122718 49 0.0 0.0 0.03 0.08 0.08 91 1002.9